Ms-hammaritha — PF2437 — position and weather

sailwx.info

Track history (hours):
 
Tides and Currents Weather Stations Pressure Air Temp Water Temp Dewpoint Dewpoint Depression Visibility Wind Speed Wind Dir Waves Ship Positions

Ms-hammaritha

Last reported at 2014-Oct-24 04:34 UTC. Time now 2014-Oct-24 11:59 UTC.
Position N 51°56' E 005°58'.

Length 86 m.

Type: Ship. MMSI: 244700691.

Date/timePositionNaut miles runAvg speedWind from/ knotsBaromVisibWave heightAir tempDewpointWater temp
2014-Oct-24 04:34N 51°56' E 005°58'44 6.8
2014-Oct-23 22:06N 51°22' E 006°42'3 4.8
2014-Oct-23 21:33N 51°20' E 006°43'6 6.2
2014-Oct-23 20:33N 51°14' E 006°44'5 5.4
2014-Oct-23 19:33N 51°09' E 006°50'15 6.9
2014-Oct-23 17:21N 50°55' E 006°58'109 4.9
2014-Oct-22 19:11N 49°23' E 008°30'5 7.5
2014-Oct-22 18:29N 49°18' E 008°29'8 9.1
2014-Oct-22 17:33N 49°11' E 008°23'10 9.9
2014-Oct-22 16:33N 49°01' E 008°18'1010.2
2014-Oct-22 15:32N 48°53' E 008°08'5 4.3
2014-Oct-22 14:20N 48°48' E 008°06'6 7.6
2014-Oct-22 13:33N 48°45' E 007°58'5 4.6
2014-Oct-22 12:33N 48°41' E 007°55'1 1.1
2014-Oct-22 11:33N 48°40' E 007°54'63 1.4
2014-Oct-20 14:23N 47°39' E 007°32'2 2.0
2014-Oct-20 13:33N 47°38' E 007°33'5 5.3
2014-Oct-20 12:33N 47°34' E 007°38'2 1.8
2014-Oct-20 11:33N 47°32' E 007°40'0 0.0
2014-Oct-20 10:33N 47°32' E 007°40'0 0.0
2014-Oct-20 09:33N 47°32' E 007°40'0 0.0
2014-Oct-20 08:33N 47°32' E 007°40'0 0.0
2014-Oct-20 07:33N 47°32' E 007°40'0 0.0
2014-Oct-20 06:34N 47°32' E 007°40'0 0.0
2014-Oct-20 05:33N 47°32' E 007°40'0 0.0
2014-Oct-20 04:33N 47°32' E 007°40'0 0.0
2014-Oct-20 03:33N 47°32' E 007°40'0 0.0
2014-Oct-20 02:34N 47°32' E 007°40'0 0.0
2014-Oct-20 01:33N 47°32' E 007°40'0 0.0
2014-Oct-20 00:33N 47°32' E 007°40'0 0.0
2014-Oct-19 23:33N 47°32' E 007°40'0 0.0
2014-Oct-19 22:33N 47°32' E 007°40'0 0.0
2014-Oct-19 21:33N 47°32' E 007°40'0 0.0
2014-Oct-19 20:33N 47°32' E 007°40'0 0.0
2014-Oct-19 19:33N 47°32' E 007°40'0 0.0
2014-Oct-19 18:33N 47°32' E 007°40'0 0.0
2014-Oct-19 17:33N 47°32' E 007°40'0 0.0
2014-Oct-19 16:33N 47°32' E 007°40'0 0.0
2014-Oct-19 15:33N 47°32' E 007°40'0 0.0
2014-Oct-19 14:33N 47°32' E 007°40'0 0.0
2014-Oct-19 13:33N 47°32' E 007°40'0 0.0
2014-Oct-19 12:34N 47°32' E 007°40'0 0.0
2014-Oct-19 11:33N 47°32' E 007°40'0 0.0
2014-Oct-19 10:33N 47°32' E 007°40'0 0.0
2014-Oct-19 09:33N 47°32' E 007°40'0 0.0
2014-Oct-19 08:33N 47°32' E 007°40'0 0.0
2014-Oct-19 07:33N 47°32' E 007°40'0 0.0
2014-Oct-19 06:33N 47°32' E 007°40'0 0.0
2014-Oct-19 05:33N 47°32' E 007°40'0 0.0
2014-Oct-19 04:33N 47°32' E 007°40'0 0.0
2014-Oct-19 03:33N 47°32' E 007°40'0 0.0
2014-Oct-19 02:33N 47°32' E 007°40'0 0.0
2014-Oct-19 01:33N 47°32' E 007°40'0 0.0
2014-Oct-19 00:33N 47°32' E 007°40'0 0.0
2014-Oct-18 23:33N 47°32' E 007°40'0 0.0
2014-Oct-18 22:33N 47°32' E 007°40'0 0.0
2014-Oct-18 21:33N 47°32' E 007°40'0 0.0
2014-Oct-18 20:33N 47°32' E 007°40'0 0.0
2014-Oct-18 19:33N 47°32' E 007°40'0 0.0
2014-Oct-18 18:33N 47°32' E 007°40'0 0.0
2014-Oct-18 17:33N 47°32' E 007°40'0 0.0
2014-Oct-18 16:33N 47°32' E 007°40'0 0.0
2014-Oct-18 15:33N 47°32' E 007°40'0 0.0
2014-Oct-18 14:33N 47°32' E 007°40'0 0.0
2014-Oct-18 13:33N 47°32' E 007°40'0 0.0
2014-Oct-18 12:33N 47°32' E 007°40'0 0.0
2014-Oct-18 11:33N 47°32' E 007°40'0 0.0
2014-Oct-18 10:33N 47°32' E 007°40'0 0.0
2014-Oct-18 09:33N 47°32' E 007°40'2 2.4
2014-Oct-18 08:33N 47°33' E 007°37'4 3.9
2014-Oct-18 07:33N 47°37' E 007°34'66 2.5
2014-Oct-17 05:17N 48°41' E 007°55'4 5.5
2014-Oct-17 04:33N 48°45' E 007°58'6 5.6
2014-Oct-17 03:32N 48°48' E 008°05'3 0.3
2014-Oct-16 19:05N 48°51' E 008°07'2 3.5
2014-Oct-16 18:32N 48°53' E 008°08'3 3.1
2014-Oct-16 17:33N 48°55' E 008°10'3 3.1
2014-Oct-16 16:32N 48°58' E 008°13'3 3.3
2014-Oct-16 15:33N 48°60' E 008°17'3 3.4
2014-Oct-16 14:33N 49°03' E 008°18'4 3.7
2014-Oct-16 13:33N 49°06' E 008°22'4 3.6
2014-Oct-16 12:33N 49°09' E 008°22'4 3.6
2014-Oct-16 11:33N 49°13' E 008°23'4 3.7
2014-Oct-16 10:33N 49°16' E 008°27'3 2.9
2014-Oct-16 09:32N 49°19' E 008°28'4 3.7
2014-Oct-16 08:30N 49°22' E 008°30'110 2.4
2014-Oct-14 11:31N 50°55' E 006°58'11 3.5
2014-Oct-14 08:19N 51°06' E 006°52'3 3.3
2014-Oct-14 07:30N 51°08' E 006°51'2 1.9
2014-Oct-14 06:33N 51°09' E 006°48'3 3.2
2014-Oct-14 05:33N 51°11' E 006°45'  
Track history (hours):
 
Tides and Currents Weather Stations Pressure Air Temp Water Temp Dewpoint Dewpoint Depression Visibility Wind Speed Wind Dir Waves Ship Positions

Ms-hammaritha

Last reported at 2014-Oct-24 04:34 UTC. Time now 2014-Oct-24 11:59 UTC.
Position N 51°56' E 005°58'.

Length 86 m.

Type: Ship. MMSI: 244700691.

Date/timePositionNaut miles runAvg speedWind from/ knotsBaromVisibWave heightAir tempDewpointWater temp
2014-Oct-24 04:34N 51°56' E 005°58'44 6.8
2014-Oct-23 22:06N 51°22' E 006°42'3 4.8
2014-Oct-23 21:33N 51°20' E 006°43'6 6.2
2014-Oct-23 20:33N 51°14' E 006°44'5 5.4
2014-Oct-23 19:33N 51°09' E 006°50'15 6.9
2014-Oct-23 17:21N 50°55' E 006°58'109 4.9
2014-Oct-22 19:11N 49°23' E 008°30'5 7.5
2014-Oct-22 18:29N 49°18' E 008°29'8 9.1
2014-Oct-22 17:33N 49°11' E 008°23'10 9.9
2014-Oct-22 16:33N 49°01' E 008°18'1010.2
2014-Oct-22 15:32N 48°53' E 008°08'5 4.3
2014-Oct-22 14:20N 48°48' E 008°06'6 7.6
2014-Oct-22 13:33N 48°45' E 007°58'5 4.6
2014-Oct-22 12:33N 48°41' E 007°55'1 1.1
2014-Oct-22 11:33N 48°40' E 007°54'63 1.4
2014-Oct-20 14:23N 47°39' E 007°32'2 2.0
2014-Oct-20 13:33N 47°38' E 007°33'5 5.3
2014-Oct-20 12:33N 47°34' E 007°38'2 1.8
2014-Oct-20 11:33N 47°32' E 007°40'0 0.0
2014-Oct-20 10:33N 47°32' E 007°40'0 0.0
2014-Oct-20 09:33N 47°32' E 007°40'0 0.0
2014-Oct-20 08:33N 47°32' E 007°40'0 0.0
2014-Oct-20 07:33N 47°32' E 007°40'0 0.0
2014-Oct-20 06:34N 47°32' E 007°40'0 0.0
2014-Oct-20 05:33N 47°32' E 007°40'0 0.0
2014-Oct-20 04:33N 47°32' E 007°40'0 0.0
2014-Oct-20 03:33N 47°32' E 007°40'0 0.0
2014-Oct-20 02:34N 47°32' E 007°40'0 0.0
2014-Oct-20 01:33N 47°32' E 007°40'0 0.0
2014-Oct-20 00:33N 47°32' E 007°40'0 0.0
2014-Oct-19 23:33N 47°32' E 007°40'0 0.0
2014-Oct-19 22:33N 47°32' E 007°40'0 0.0
2014-Oct-19 21:33N 47°32' E 007°40'0 0.0
2014-Oct-19 20:33N 47°32' E 007°40'0 0.0
2014-Oct-19 19:33N 47°32' E 007°40'0 0.0
2014-Oct-19 18:33N 47°32' E 007°40'0 0.0
2014-Oct-19 17:33N 47°32' E 007°40'0 0.0
2014-Oct-19 16:33N 47°32' E 007°40'0 0.0
2014-Oct-19 15:33N 47°32' E 007°40'0 0.0
2014-Oct-19 14:33N 47°32' E 007°40'0 0.0
2014-Oct-19 13:33N 47°32' E 007°40'0 0.0
2014-Oct-19 12:34N 47°32' E 007°40'0 0.0
2014-Oct-19 11:33N 47°32' E 007°40'0 0.0
2014-Oct-19 10:33N 47°32' E 007°40'0 0.0
2014-Oct-19 09:33N 47°32' E 007°40'0 0.0
2014-Oct-19 08:33N 47°32' E 007°40'0 0.0
2014-Oct-19 07:33N 47°32' E 007°40'0 0.0
2014-Oct-19 06:33N 47°32' E 007°40'0 0.0
2014-Oct-19 05:33N 47°32' E 007°40'0 0.0
2014-Oct-19 04:33N 47°32' E 007°40'0 0.0
2014-Oct-19 03:33N 47°32' E 007°40'0 0.0
2014-Oct-19 02:33N 47°32' E 007°40'0 0.0
2014-Oct-19 01:33N 47°32' E 007°40'0 0.0
2014-Oct-19 00:33N 47°32' E 007°40'0 0.0
2014-Oct-18 23:33N 47°32' E 007°40'0 0.0
2014-Oct-18 22:33N 47°32' E 007°40'0 0.0
2014-Oct-18 21:33N 47°32' E 007°40'0 0.0
2014-Oct-18 20:33N 47°32' E 007°40'0 0.0
2014-Oct-18 19:33N 47°32' E 007°40'0 0.0
2014-Oct-18 18:33N 47°32' E 007°40'0 0.0
2014-Oct-18 17:33N 47°32' E 007°40'0 0.0
2014-Oct-18 16:33N 47°32' E 007°40'0 0.0
2014-Oct-18 15:33N 47°32' E 007°40'0 0.0
2014-Oct-18 14:33N 47°32' E 007°40'0 0.0
2014-Oct-18 13:33N 47°32' E 007°40'0 0.0
2014-Oct-18 12:33N 47°32' E 007°40'0 0.0
2014-Oct-18 11:33N 47°32' E 007°40'0 0.0
2014-Oct-18 10:33N 47°32' E 007°40'0 0.0
2014-Oct-18 09:33N 47°32' E 007°40'2 2.4
2014-Oct-18 08:33N 47°33' E 007°37'4 3.9
2014-Oct-18 07:33N 47°37' E 007°34'66 2.5
2014-Oct-17 05:17N 48°41' E 007°55'4 5.5
2014-Oct-17 04:33N 48°45' E 007°58'6 5.6
2014-Oct-17 03:32N 48°48' E 008°05'3 0.3
2014-Oct-16 19:05N 48°51' E 008°07'2 3.5
2014-Oct-16 18:32N 48°53' E 008°08'3 3.1
2014-Oct-16 17:33N 48°55' E 008°10'3 3.1
2014-Oct-16 16:32N 48°58' E 008°13'3 3.3
2014-Oct-16 15:33N 48°60' E 008°17'3 3.4
2014-Oct-16 14:33N 49°03' E 008°18'4 3.7
2014-Oct-16 13:33N 49°06' E 008°22'4 3.6
2014-Oct-16 12:33N 49°09' E 008°22'4 3.6
2014-Oct-16 11:33N 49°13' E 008°23'4 3.7
2014-Oct-16 10:33N 49°16' E 008°27'3 2.9
2014-Oct-16 09:32N 49°19' E 008°28'4 3.7
2014-Oct-16 08:30N 49°22' E 008°30'110 2.4
2014-Oct-14 11:31N 50°55' E 006°58'11 3.5
2014-Oct-14 08:19N 51°06' E 006°52'3 3.3
2014-Oct-14 07:30N 51°08' E 006°51'2 1.9
2014-Oct-14 06:33N 51°09' E 006°48'3 3.2
2014-Oct-14 05:33N 51°11' E 006°45'  

Dump ship's entire track history